Glendive, MT

9:07 AM MDT on June 23, 2017 (GMT -0600)
Dawson Community

Weather History for KGDV - September, 2013

Change the Weather History Date:

Wednesday, September 25, 2013

  Actual Average Record
Temperature  
Mean Temperature 57 °F -  
Max Temperature 66 °F 65 °F 93 °F (2014)
Min Temperature 48 °F 38 °F 28 °F (2002)
Degree Days  
Heating Degree Days 8    
Growing Degree Days 7 (Base 50)    
Moisture  
Dew Point 44 °F    
Average Humidity 67    
Maximum Humidity 93    
Minimum Humidity 40    
Precipitation  
Precipitation 0.03 in - - ()
Sea Level Pressure  
Sea Level Pressure 29.63 in    
Wind  
Wind Speed 11 mph (WNW)    
Max Wind Speed 21 mph    
Max Gust Speed 28 mph    
Visibility 10 miles    
Events      
Averages and records for this station are not official NWS values.
T = Trace of Precipitation, MM = Missing Value Source: NWS Daily Summary

Daily Weather History Graph

Daily Weather History Graph

Search for Another Location

Airport or City:

Trip Planner

Search our weather history database for the weather conditions in past years. The results will help you decide how hot, cold, wet, or windy it might be!

Date:

Astronomy

Sep. 25, 2013 Rise Set
Actual Time 6:50 AM MDT 6:50 PM MDT
Civil Twilight 6:20 AM MDT 7:20 PM MDT
Nautical Twilight 5:44 AM MDT 7:56 PM MDT
Astronomical Twilight 5:07 AM MDT 8:32 PM MDT
Moon 10:38 PM MDT (9/25) 1:18 PM MDT (9/25)
Length of Visible Light 13h 00m
Length of Day
11h 59m
Waning Gibbous, 63% of the Moon is Illuminated
Sep 25
Waning Gibbous
Sep 26
Last Quarter
Oct 4
New
Oct 11
First Quarter
Oct 18
Full

Hourly Weather History & Observations

Time (MDT) Temp. Dew Point Humidity Pressure Visibility Wind Dir Wind Speed Gust Speed Precip Events Conditions
12:35 AM 62.6 °F 41.0 °F 45% 29.58 in 10.0 mi SE 5.8 mph - N/A   Clear
12:55 AM 66.2 °F 41.0 °F 40% 29.58 in 10.0 mi SSE 11.5 mph - N/A   Clear
1:15 AM 64.4 °F 39.2 °F 40% 29.59 in 10.0 mi SSW 10.4 mph - N/A   Clear
1:55 AM 60.8 °F 41.0 °F 48% 29.59 in 10.0 mi South 10.4 mph - N/A   Clear
2:15 AM 55.4 °F 39.2 °F 54% 29.58 in 10.0 mi South 9.2 mph - N/A   Clear
2:35 AM 55.4 °F 39.2 °F 54% 29.59 in 10.0 mi South 9.2 mph - N/A   Clear
2:55 AM 55.4 °F 39.2 °F 54% 29.58 in 10.0 mi SSW 5.8 mph - N/A   Clear
3:15 AM 51.8 °F 39.2 °F 62% 29.58 in 10.0 mi WSW 4.6 mph - N/A   Clear
3:35 AM 51.8 °F 41.0 °F 67% 29.59 in 10.0 mi SW 6.9 mph - N/A   Clear
3:55 AM 51.8 °F 41.0 °F 67% 29.59 in 10.0 mi South 6.9 mph - N/A   Clear
4:15 AM 50.0 °F 39.2 °F 66% 29.58 in 10.0 mi WSW 6.9 mph - N/A   Clear
4:35 AM 48.2 °F 41.0 °F 76% 29.59 in 10.0 mi SW 3.5 mph - N/A   Clear
4:55 AM 51.8 °F 42.8 °F 71% 29.59 in 10.0 mi West 10.4 mph - N/A   Clear
5:35 AM 53.6 °F 41.0 °F 62% 29.60 in 10.0 mi WNW 10.4 mph - N/A   Clear
5:55 AM 55.4 °F 42.8 °F 63% 29.59 in 10.0 mi WNW 12.7 mph - N/A   Clear
6:15 AM 53.6 °F 44.6 °F 72% 29.62 in 10.0 mi WNW 8.1 mph - N/A   Clear
6:35 AM 53.6 °F 44.6 °F 72% 29.62 in 10.0 mi WNW 9.2 mph - N/A   Clear
6:55 AM 53.6 °F 44.6 °F 72% 29.64 in 10.0 mi West 12.7 mph - N/A   Clear
7:15 AM 53.6 °F 44.6 °F 72% 29.64 in 10.0 mi West 15.0 mph 23.0 mph N/A   Clear
7:35 AM 53.6 °F 44.6 °F 72% 29.66 in 10.0 mi WNW 12.7 mph - N/A   Scattered Clouds
8:35 AM 53.6 °F 44.6 °F 72% 29.67 in 10.0 mi WNW 16.1 mph 21.9 mph N/A   Clear
8:55 AM 53.6 °F 44.6 °F 72% 29.64 in 10.0 mi WNW 20.7 mph 27.6 mph N/A   Scattered Clouds
9:15 AM 53.6 °F 44.6 °F 72% 29.62 in 10.0 mi NW 17.3 mph 24.2 mph N/A   Partly Cloudy
9:35 AM 55.4 °F 46.4 °F 72% 29.63 in 10.0 mi NW 17.3 mph - N/A   Partly Cloudy
10:55 AM 59.0 °F 44.6 °F 59% 29.67 in 10.0 mi West 12.7 mph 21.9 mph N/A   Clear
11:15 AM 59.0 °F 44.6 °F 59% 29.67 in 10.0 mi West 15.0 mph - N/A   Clear
11:35 AM 60.8 °F 44.6 °F 55% 29.66 in 10.0 mi West 15.0 mph - N/A   Clear
11:55 AM 62.6 °F 44.6 °F 52% 29.64 in 10.0 mi West 12.7 mph 19.6 mph N/A   Clear
12:35 PM 60.8 °F 44.6 °F 55% 29.63 in 10.0 mi NNW 13.8 mph - N/A   Clear
12:55 PM 60.8 °F 44.6 °F 55% 29.61 in 10.0 mi NW 11.5 mph - N/A   Clear
1:15 PM 62.6 °F 44.6 °F 52% 29.62 in 10.0 mi NW 17.3 mph 23.0 mph N/A   Clear
1:35 PM 62.6 °F 44.6 °F 52% 29.62 in 10.0 mi NNW 12.7 mph - N/A   Clear
1:55 PM 62.6 °F 44.6 °F 52% 29.62 in 10.0 mi NNW 11.5 mph - N/A   Clear
2:15 PM 62.6 °F 44.6 °F 52% 29.61 in 10.0 mi North 9.2 mph - N/A   Clear
2:35 PM 62.6 °F 44.6 °F 52% 29.60 in 10.0 mi NNE 10.4 mph - N/A   Clear
3:15 PM 62.6 °F 44.6 °F 52% 29.62 in 10.0 mi NNW 15.0 mph - N/A   Clear
3:35 PM 62.6 °F 46.4 °F 55% 29.63 in 10.0 mi NNW 16.1 mph - N/A   Clear
3:55 PM 59.0 °F 44.6 °F 59% 29.63 in 10.0 mi NW 13.8 mph 19.6 mph N/A   Clear
4:15 PM 57.2 °F 46.4 °F 67% 29.63 in 10.0 mi NW 15.0 mph - N/A   Clear
4:35 PM 57.2 °F 46.4 °F 67% 29.64 in 10.0 mi NW 16.1 mph - N/A   Clear
4:55 PM 55.4 °F 46.4 °F 72% 29.64 in 10.0 mi WNW 17.3 mph 20.7 mph N/A   Clear
5:15 PM 55.4 °F 44.6 °F 67% 29.63 in 10.0 mi NNW 16.1 mph 23.0 mph N/A   Clear
5:35 PM 55.4 °F 44.6 °F 67% 29.63 in 10.0 mi NW 19.6 mph 23.0 mph N/A   Clear
5:55 PM 53.6 °F 44.6 °F 72% 29.63 in 10.0 mi NW 18.4 mph - N/A   Clear
6:16 PM 53.6 °F 44.6 °F 72% 29.65 in 10.0 mi NW 13.8 mph - N/A   Clear
6:35 PM 53.6 °F 44.6 °F 72% 29.65 in 10.0 mi NW 16.1 mph 19.6 mph N/A   Scattered Clouds
7:55 PM 51.8 °F 44.6 °F 76% 29.65 in 10.0 mi NNW 16.1 mph - N/A   Scattered Clouds
8:15 PM 51.8 °F 44.6 °F 76% 29.64 in 10.0 mi NNW 17.3 mph - N/A   Partly Cloudy
8:35 PM 51.8 °F 44.6 °F 76% 29.67 in 10.0 mi NW 15.0 mph - N/A   Mostly Cloudy
8:55 PM 50.0 °F 46.4 °F 87% 29.67 in 10.0 mi WNW 12.7 mph - 0.01 in   Overcast
9:15 PM 50.0 °F 46.4 °F 87% 29.66 in 10.0 mi WNW 15.0 mph - N/A   Mostly Cloudy
9:35 PM 50.0 °F 46.4 °F 87% 29.66 in 10.0 mi WNW 17.3 mph - N/A   Mostly Cloudy
9:55 PM 50.0 °F 46.4 °F 87% 29.65 in 10.0 mi NW 17.3 mph 24.2 mph 0.01 in   Overcast
10:15 PM 50.0 °F 46.4 °F 87% 29.63 in 10.0 mi NW 17.3 mph - 0.01 in   Overcast
10:35 PM 50.0 °F 46.4 °F 87% 29.66 in 10.0 mi NNW 9.2 mph - 0.01 in   Overcast
10:55 PM 50.0 °F 46.4 °F 87% 29.64 in 10.0 mi NNW 12.7 mph - 0.01 in   Overcast
11:15 PM 48.2 °F 46.4 °F 93% 29.65 in 10.0 mi NNW 13.8 mph - N/A   Mostly Cloudy
11:35 PM 48.2 °F 46.4 °F 93% 29.63 in 10.0 mi NNW 12.7 mph - N/A   Overcast
11:55 PM 50.0 °F 46.4 °F 87% 29.64 in 10.0 mi NNW 12.7 mph - N/A   Overcast